Time,TemperatureF,DewpointF,PressureIn,WindDirection,WindDirectionDegrees,WindSpeedMPH,WindSpeedGustMPH,Humidity,HourlyPrecipIn,Conditions,Clouds,dailyrainin,SoftwareType,DateUTC
2013-06-10 00:02:00,65.0,64.0,29.84,SSW,204,0.0,0.0,96,0.00,,,0.09,,2013-06-10 05:02:00,
2013-06-10 00:12:00,65.0,64.0,29.84,SSW,204,0.0,0.0,96,0.00,,,0.09,,2013-06-10 05:12:00,
2013-06-10 00:22:00,65.0,64.0,29.84,SSW,204,0.0,0.0,96,0.00,,,0.09,,2013-06-10 05:22:00,
2013-06-10 00:32:00,64.0,63.0,29.83,SSW,204,0.0,0.0,97,0.00,,,0.09,,2013-06-10 05:32:00,
2013-06-10 00:42:00,64.0,63.0,29.83,SSW,204,0.0,0.0,97,0.00,,,0.09,,2013-06-10 05:42:00,
2013-06-10 00:52:00,64.0,63.0,29.83,SSW,204,0.0,0.0,97,0.00,,,0.09,,2013-06-10 05:52:00,
2013-06-10 01:02:00,64.0,63.0,29.83,SSW,204,0.0,0.0,97,0.00,,,0.09,,2013-06-10 06:02:00,
2013-06-10 01:12:00,64.0,63.0,29.83,SSW,204,0.0,0.0,97,0.00,,,0.09,,2013-06-10 06:12:00,
2013-06-10 01:22:00,64.0,63.0,29.83,SSE,168,0.0,1.0,97,0.00,,,0.09,,2013-06-10 06:22:00,
2013-06-10 01:32:00,63.0,62.0,29.83,SSE,167,0.0,1.0,97,0.00,,,0.09,,2013-06-10 06:32:00,
2013-06-10 01:42:00,63.0,62.0,29.83,SSE,167,0.0,1.0,97,0.00,,,0.09,,2013-06-10 06:42:00,
2013-06-10 01:53:00,63.0,62.0,29.82,SSE,168,0.0,0.0,97,0.00,,,0.09,,2013-06-10 06:53:00,
2013-06-10 02:02:00,62.0,61.0,29.82,SSE,167,0.0,0.0,97,0.00,,,0.09,,2013-06-10 07:02:00,
2013-06-10 02:12:00,62.0,61.0,29.82,SSE,167,0.0,0.0,97,0.00,,,0.09,,2013-06-10 07:12:00,
2013-06-10 02:22:00,62.0,61.0,29.82,SSE,167,0.0,1.0,98,0.00,,,0.09,,2013-06-10 07:22:00,
2013-06-10 02:32:00,62.0,61.0,29.82,SSE,167,0.0,0.0,98,0.00,,,0.09,,2013-06-10 07:32:00,
2013-06-10 02:42:00,62.0,61.0,29.82,SSE,167,0.0,0.0,98,0.00,,,0.09,,2013-06-10 07:42:00,
2013-06-10 02:52:00,62.0,61.0,29.82,SSE,167,0.0,0.0,98,0.00,,,0.09,,2013-06-10 07:52:00,
2013-06-10 03:02:00,63.0,62.0,29.82,SSE,167,0.0,0.0,98,0.00,,,0.09,,2013-06-10 08:02:00,
2013-06-10 03:12:00,63.0,62.0,29.82,SSE,167,0.0,0.0,98,0.00,,,0.09,,2013-06-10 08:12:00,
2013-06-10 03:22:00,63.0,62.0,29.81,SSE,167,0.0,0.0,98,0.00,,,0.09,,2013-06-10 08:22:00,
2013-06-10 03:32:00,63.0,62.0,29.82,SSE,168,0.0,1.0,98,0.00,,,0.09,,2013-06-10 08:32:00,
2013-06-10 03:42:00,63.0,62.0,29.82,SSE,168,0.0,1.0,98,0.00,,,0.09,,2013-06-10 08:42:00,
2013-06-10 03:52:00,63.0,62.0,29.81,SSE,168,0.0,1.0,98,0.00,,,0.09,,2013-06-10 08:52:00,
2013-06-10 04:02:00,63.0,62.0,29.81,SSE,167,0.0,1.0,98,0.01,,,0.10,,2013-06-10 09:02:00,
2013-06-10 04:12:00,63.0,62.0,29.81,SSE,167,0.0,1.0,98,0.01,,,0.10,,2013-06-10 09:12:00,
2013-06-10 04:22:00,62.0,61.0,29.81,SSE,167,0.0,0.0,98,0.01,,,0.10,,2013-06-10 09:22:00,
2013-06-10 04:32:00,62.0,61.0,29.81,SSE,167,0.0,0.0,98,0.01,,,0.10,,2013-06-10 09:32:00,
2013-06-10 04:42:00,62.0,61.0,29.81,SSE,167,0.0,0.0,98,0.01,,,0.10,,2013-06-10 09:42:00,
2013-06-10 04:53:00,62.0,61.0,29.81,SSE,167,0.0,1.0,98,0.01,,,0.10,,2013-06-10 09:53:00,
2013-06-10 05:03:00,61.0,60.0,29.81,SSE,168,0.0,1.0,98,0.00,,,0.10,,2013-06-10 10:03:00,
2013-06-10 05:12:00,61.0,60.0,29.81,SSE,168,0.0,1.0,98,0.00,,,0.10,,2013-06-10 10:12:00,
2013-06-10 05:22:00,61.0,60.0,29.81,SSE,168,0.0,0.0,98,0.00,,,0.10,,2013-06-10 10:22:00,
2013-06-10 05:33:00,60.0,59.0,29.82,SSE,167,0.0,0.0,98,0.00,,,0.10,,2013-06-10 10:33:00,
2013-06-10 05:42:00,60.0,59.0,29.82,SSE,167,0.0,0.0,98,0.00,,,0.10,,2013-06-10 10:42:00,
2013-06-10 05:52:00,60.0,59.0,29.82,SSE,167,0.0,1.0,98,0.00,,,0.10,,2013-06-10 10:52:00,
2013-06-10 06:02:00,60.0,59.0,29.83,SSE,167,0.0,0.0,98,0.00,,,0.10,,2013-06-10 11:02:00,
2013-06-10 06:12:00,60.0,59.0,29.83,SSE,167,0.0,0.0,98,0.00,,,0.10,,2013-06-10 11:12:00,
2013-06-10 06:22:00,60.0,59.0,29.82,SSE,167,0.0,0.0,98,0.00,,,0.10,,2013-06-10 11:22:00,
2013-06-10 06:32:00,60.0,59.0,29.83,SSE,167,0.0,1.0,98,0.00,,,0.10,,2013-06-10 11:32:00,
2013-06-10 06:42:00,60.0,59.0,29.83,SSE,167,0.0,1.0,98,0.00,,,0.10,,2013-06-10 11:42:00,
2013-06-10 06:52:00,60.0,59.0,29.83,SSE,167,0.0,1.0,98,0.00,,,0.10,,2013-06-10 11:52:00,
2013-06-10 07:02:00,63.0,62.0,29.83,SSE,167,0.0,0.0,98,0.00,,,0.10,,2013-06-10 12:02:00,
2013-06-10 07:12:00,63.0,62.0,29.83,SSE,167,0.0,0.0,98,0.00,,,0.10,,2013-06-10 12:12:00,
2013-06-10 07:22:00,64.0,63.0,29.82,SSE,168,0.0,0.0,97,0.00,,,0.10,,2013-06-10 12:22:00,
2013-06-10 07:32:00,64.0,63.0,29.83,WNW,295,0.0,2.0,97,0.00,,,0.10,,2013-06-10 12:32:00,
2013-06-10 07:42:00,64.0,63.0,29.83,WNW,295,0.0,2.0,97,0.00,,,0.10,,2013-06-10 12:42:00,
2013-06-10 07:52:00,67.0,63.0,29.84,West,264,2.0,7.0,86,0.00,,,0.10,,2013-06-10 12:52:00,
2013-06-10 08:02:00,69.0,63.0,29.85,WNW,283,2.0,8.0,80,0.00,,,0.10,,2013-06-10 13:02:00,
2013-06-10 08:12:00,69.0,63.0,29.85,WNW,283,2.0,8.0,80,0.00,,,0.10,,2013-06-10 13:12:00,
2013-06-10 08:22:00,70.0,63.0,29.85,WSW,249,1.0,4.0,78,0.00,,,0.10,,2013-06-10 13:22:00,
2013-06-10 08:32:00,72.0,64.0,29.85,West,269,4.0,8.0,77,0.00,,,0.10,,2013-06-10 13:32:00,
2013-06-10 08:42:00,72.0,64.0,29.85,West,269,4.0,8.0,77,0.00,,,0.10,,2013-06-10 13:42:00,
2013-06-10 08:52:00,74.0,66.0,29.86,WNW,291,4.0,9.0,75,0.00,,,0.10,,2013-06-10 13:52:00,
2013-06-10 09:02:00,76.0,66.0,29.86,West,277,4.0,11.0,72,0.00,,,0.10,,2013-06-10 14:02:00,
2013-06-10 09:12:00,76.0,66.0,29.86,West,277,4.0,11.0,72,0.00,,,0.10,,2013-06-10 14:12:00,
2013-06-10 09:22:00,77.0,67.0,29.86,WSW,245,5.0,13.0,71,0.00,,,0.10,,2013-06-10 14:22:00,
2013-06-10 09:32:00,78.0,68.0,29.86,NW,318,4.0,14.0,71,0.00,,,0.10,,2013-06-10 14:32:00,
2013-06-10 09:42:00,78.0,68.0,29.86,NW,318,4.0,14.0,71,0.00,,,0.10,,2013-06-10 14:42:00,
2013-06-10 09:52:00,78.0,68.0,29.86,WNW,298,4.0,10.0,71,0.00,,,0.10,,2013-06-10 14:52:00,
2013-06-10 10:02:00,78.0,67.0,29.86,WNW,291,3.0,16.0,70,0.00,,,0.10,,2013-06-10 15:02:00,
2013-06-10 10:12:00,78.0,67.0,29.86,WNW,291,3.0,16.0,70,0.00,,,0.10,,2013-06-10 15:12:00,
2013-06-10 10:22:00,79.0,67.0,29.86,SW,225,5.0,12.0,67,0.00,,,0.10,,2013-06-10 15:22:00,
2013-06-10 10:33:00,80.0,67.0,29.86,West,259,4.0,11.0,65,0.00,,,0.10,,2013-06-10 15:33:00,
2013-06-10 10:43:00,80.0,67.0,29.86,West,259,4.0,11.0,65,0.00,,,0.10,,2013-06-10 15:43:00,
2013-06-10 10:53:00,81.0,67.0,29.86,West,279,5.0,10.0,62,0.00,,,0.10,,2013-06-10 15:53:00,
2013-06-10 11:03:00,82.0,68.0,29.86,West,271,6.0,12.0,62,0.00,,,0.10,,2013-06-10 16:03:00,
2013-06-10 11:12:00,82.0,68.0,29.86,West,271,6.0,12.0,62,0.00,,,0.10,,2013-06-10 16:12:00,
2013-06-10 11:23:00,83.0,69.0,29.86,WSW,252,3.0,10.0,63,0.00,,,0.10,,2013-06-10 16:23:00,
2013-06-10 11:33:00,84.0,69.0,29.86,ENE,75,2.0,10.0,60,0.00,,,0.10,,2013-06-10 16:33:00,
2013-06-10 11:43:00,84.0,69.0,29.86,ENE,75,2.0,10.0,60,0.00,,,0.10,,2013-06-10 16:43:00,
2013-06-10 11:52:00,84.0,69.0,29.86,ENE,75,2.0,10.0,60,0.00,,,0.10,,2013-06-10 16:52:00,
2013-06-10 12:03:00,85.0,69.0,29.86,NW,310,3.0,7.0,59,0.00,,,0.10,,2013-06-10 17:03:00,
2013-06-10 12:14:00,85.0,69.0,29.86,NW,310,3.0,7.0,59,0.00,,,0.10,,2013-06-10 17:14:00,
2013-06-10 12:38:00,85.0,69.0,29.86,NNW,340,2.0,7.0,59,0.00,,,0.10,,2013-06-10 17:38:00,
2013-06-10 12:48:00,86.0,69.0,29.86,North,350,3.0,8.0,58,0.00,,,0.10,,2013-06-10 17:48:00,
2013-06-10 12:57:00,86.0,69.0,29.86,North,350,3.0,8.0,58,0.00,,,0.10,,2013-06-10 17:57:00,
2013-06-10 13:07:00,86.0,69.0,29.86,North,350,3.0,8.0,58,0.00,,,0.10,,2013-06-10 18:07:00,
2013-06-10 13:14:00,86.0,69.0,29.86,North,350,3.0,8.0,58,0.00,,,0.10,,2013-06-10 18:14:00,
2013-06-10 13:25:00,87.0,69.0,29.85,West,278,2.0,8.0,56,0.00,,,0.10,,2013-06-10 18:25:00,
2013-06-10 13:34:00,88.0,69.0,29.85,WSW,241,3.0,8.0,54,0.00,,,0.03,,2013-06-10 18:34:00,
2013-06-10 13:48:00,88.0,69.0,29.85,WSW,241,3.0,8.0,54,0.00,,,0.03,,2013-06-10 18:48:00,
2013-06-10 13:55:00,87.0,67.0,29.84,West,274,4.0,12.0,51,0.00,,,0.03,,2013-06-10 18:55:00,
2013-06-10 14:03:00,88.0,67.0,29.84,WNW,284,4.0,11.0,50,0.00,,,0.03,,2013-06-10 19:03:00,
2013-06-10 14:13:00,88.0,67.0,29.84,WNW,284,4.0,11.0,50,0.00,,,0.03,,2013-06-10 19:13:00,
2013-06-10 14:22:00,89.0,66.0,29.83,WNW,300,4.0,12.0,47,0.00,,,0.03,,2013-06-10 19:22:00,
2013-06-10 14:33:00,89.0,66.0,29.83,SSW,212,3.0,11.0,47,0.00,,,0.03,,2013-06-10 19:33:00,
2013-06-10 14:43:00,89.0,66.0,29.83,SSW,212,3.0,11.0,47,0.00,,,0.03,,2013-06-10 19:43:00,
2013-06-10 14:52:00,90.0,66.0,29.83,West,276,3.0,9.0,46,0.00,,,0.03,,2013-06-10 19:52:00,
2013-06-10 15:03:00,91.0,67.0,29.82,WNW,297,1.0,13.0,45,0.00,,,0.03,,2013-06-10 20:03:00,
2013-06-10 15:12:00,91.0,67.0,29.82,WNW,297,1.0,13.0,45,0.00,,,0.03,,2013-06-10 20:12:00,
2013-06-10 15:22:00,90.0,64.0,29.82,NW,306,3.0,14.0,43,0.00,,,0.03,,2013-06-10 20:22:00,
2013-06-10 15:32:00,91.0,65.0,29.82,SW,235,3.0,11.0,43,0.00,,,0.03,,2013-06-10 20:32:00,
2013-06-10 15:43:00,91.0,65.0,29.82,SW,235,3.0,11.0,43,0.00,,,0.03,,2013-06-10 20:43:00,
2013-06-10 15:52:00,91.0,65.0,29.82,WNW,284,3.0,9.0,43,0.00,,,0.03,,2013-06-10 20:52:00,
2013-06-10 16:02:00,92.0,66.0,29.82,NW,323,1.0,8.0,43,0.00,,,0.03,,2013-06-10 21:02:00,
2013-06-10 16:12:00,92.0,66.0,29.82,NW,323,1.0,8.0,43,0.00,,,0.03,,2013-06-10 21:12:00,
2013-06-10 16:22:00,92.0,66.0,29.81,WNW,301,3.0,9.0,42,0.00,,,0.03,,2013-06-10 21:22:00,
2013-06-10 16:33:00,93.0,65.0,29.81,West,273,5.0,13.0,40,0.00,,,0.01,,2013-06-10 21:33:00,
2013-06-10 16:43:00,93.0,65.0,29.81,West,273,5.0,13.0,40,0.00,,,0.01,,2013-06-10 21:43:00,
2013-06-10 16:53:00,93.0,67.0,29.81,WNW,291,2.0,14.0,43,0.00,,,0.01,,2013-06-10 21:53:00,
2013-06-10 17:03:00,93.0,66.0,29.81,WNW,294,3.0,9.0,42,0.00,,,0.01,,2013-06-10 22:03:00,
2013-06-10 17:13:00,93.0,66.0,29.81,WNW,294,3.0,9.0,42,0.00,,,0.01,,2013-06-10 22:13:00,
2013-06-10 17:22:00,92.0,66.0,29.81,WNW,293,2.0,9.0,43,0.00,,,0.01,,2013-06-10 22:22:00,
2013-06-10 17:33:00,93.0,67.0,29.80,WNW,289,1.0,7.0,43,0.00,,,0.01,,2013-06-10 22:33:00,
2013-06-10 17:42:00,93.0,66.0,29.80,West,274,3.0,7.0,42,0.00,,,0.01,,2013-06-10 22:42:00,
2013-06-10 17:52:00,93.0,66.0,29.80,West,274,3.0,7.0,42,0.00,,,0.01,,2013-06-10 22:52:00,
2013-06-10 18:02:00,92.0,66.0,29.80,West,266,4.0,7.0,43,0.00,,,0.01,,2013-06-10 23:02:00,
2013-06-10 18:12:00,92.0,66.0,29.80,West,266,4.0,7.0,43,0.00,,,0.01,,2013-06-10 23:12:00,
2013-06-10 18:22:00,93.0,68.0,29.80,West,277,1.0,8.0,44,0.00,,,0.01,,2013-06-10 23:22:00,
2013-06-10 18:32:00,92.0,66.0,29.80,WSW,245,3.0,7.0,43,0.00,,,0.01,,2013-06-10 23:32:00,
2013-06-10 18:42:00,92.0,66.0,29.80,WSW,245,3.0,7.0,43,0.00,,,0.01,,2013-06-10 23:42:00,
2013-06-10 18:52:00,91.0,67.0,29.80,NW,318,1.0,5.0,45,0.00,,,0.01,,2013-06-10 23:52:00,
2013-06-10 19:02:00,92.0,67.0,29.80,WNW,293,0.0,4.0,44,0.00,,,0.01,,2013-06-11 00:02:00,
2013-06-10 19:12:00,91.0,66.0,29.81,West,260,1.0,6.0,44,0.00,,,0.01,,2013-06-11 00:12:00,
2013-06-10 19:22:00,91.0,66.0,29.81,West,260,1.0,6.0,44,0.00,,,0.01,,2013-06-11 00:22:00,
2013-06-10 19:32:00,91.0,67.0,29.81,WNW,283,3.0,6.0,45,0.00,,,0.01,,2013-06-11 00:32:00,
2013-06-10 19:42:00,91.0,67.0,29.81,WNW,283,3.0,6.0,45,0.00,,,0.01,,2013-06-11 00:42:00,
2013-06-10 19:52:00,90.0,66.0,29.82,West,263,1.0,3.0,46,0.00,,,0.01,,2013-06-11 00:52:00,
2013-06-10 20:02:00,90.0,67.0,29.81,West,277,0.0,3.0,47,0.00,,,0.01,,2013-06-11 01:02:00,
2013-06-10 20:12:00,90.0,67.0,29.81,West,277,0.0,3.0,47,0.00,,,0.01,,2013-06-11 01:12:00,
2013-06-10 20:22:00,90.0,68.0,29.81,WSW,246,0.0,2.0,49,0.00,,,0.01,,2013-06-11 01:22:00,
2013-06-10 20:32:00,89.0,69.0,29.82,SW,233,0.0,1.0,52,0.00,,,0.01,,2013-06-11 01:32:00,
2013-06-10 20:42:00,89.0,69.0,29.82,SW,233,0.0,1.0,52,0.00,,,0.01,,2013-06-11 01:42:00,
2013-06-10 20:52:00,86.0,68.0,29.82,SW,232,0.0,0.0,56,0.00,,,0.01,,2013-06-11 01:52:00,
2013-06-10 21:02:00,84.0,70.0,29.82,South,190,0.0,1.0,63,0.00,,,0.01,,2013-06-11 02:02:00,
2013-06-10 21:12:00,84.0,70.0,29.82,South,190,0.0,1.0,63,0.00,,,0.01,,2013-06-11 02:12:00,
2013-06-10 21:22:00,82.0,69.0,29.82,South,190,0.0,0.0,66,0.00,,,0.01,,2013-06-11 02:22:00,
2013-06-10 21:32:00,80.0,68.0,29.83,South,190,0.0,0.0,68,0.00,,,0.01,,2013-06-11 02:32:00,
2013-06-10 21:42:00,79.0,69.0,29.83,ESE,107,0.0,1.0,72,0.00,,,0.01,,2013-06-11 02:42:00,
2013-06-10 21:52:00,79.0,69.0,29.83,ESE,107,0.0,1.0,72,0.00,,,0.01,,2013-06-11 02:52:00,
2013-06-10 22:02:00,78.0,69.0,29.84,ESE,108,0.0,0.0,73,0.00,,,0.01,,2013-06-11 03:02:00,
2013-06-10 22:13:00,77.0,69.0,29.84,ESE,107,0.0,1.0,77,0.00,,,0.01,,2013-06-11 03:13:00,
2013-06-10 22:22:00,77.0,69.0,29.84,ESE,107,0.0,1.0,77,0.00,,,0.01,,2013-06-11 03:22:00,
2013-06-10 22:32:00,76.0,69.0,29.85,ESE,108,0.0,0.0,79,0.00,,,0.01,,2013-06-11 03:32:00,
2013-06-10 22:43:00,76.0,69.0,29.86,ESE,108,0.0,1.0,79,0.00,,,0.01,,2013-06-11 03:43:00,
2013-06-10 22:53:00,76.0,69.0,29.86,ESE,108,0.0,1.0,79,0.00,,,0.01,,2013-06-11 03:53:00,
2013-06-10 23:03:00,75.0,68.0,29.86,ESE,108,0.0,0.0,80,0.00,,,0.01,,2013-06-11 04:03:00,
2013-06-10 23:12:00,75.0,68.0,29.86,ESE,108,0.0,0.0,80,0.00,,,0.01,,2013-06-11 04:12:00,
2013-06-10 23:23:00,74.0,68.0,29.86,ESE,108,0.0,0.0,82,0.00,,,0.01,,2013-06-11 04:23:00,
2013-06-10 23:33:00,73.0,68.0,29.86,ESE,107,0.0,0.0,83,0.00,,,0.01,,2013-06-11 04:33:00,
2013-06-10 23:42:00,73.0,68.0,29.86,ESE,107,0.0,0.0,83,0.00,,,0.01,,2013-06-11 04:42:00,
2013-06-10 23:52:00,72.0,67.0,29.87,ESE,108,0.0,1.0,85,0.00,,,0.01,,2013-06-11 04:52:00,